Tracking 19475 objects as of 18-Jan-2019
HD Live streaming from Space Station
objects crossing your sky now

COSMOS 1808

Track COSMOS 1808 now!
10-day predictions
COSMOS 1808 is classified as:


NORAD ID: 17239
Int'l Code: 1986-100A
Perigee: 975.4 km
Apogee: 1,023.7 km
Inclination: 82.9 °
Period: 105.0 minutes
Semi major axis: 7370 km
RCS: 2.275 m2 (large)
Launch date: December 17, 1986
Source: Commonwealth of Independent States (former USSR) (CIS)
Launch site: PLESETSK MISSILE AND SPACE COMPLEX (PKMTR)
aabbcc
Your satellite tracking list
Your tracking list is empty




NASA's NSSDC Master Catalog

Two Line Element Set (TLE):
1 17239U 86100A   19017.51199866 +.00000013 +00000-0 -21735-5 0  9998
2 17239 082.9337 010.1887 0032799 173.4066 301.3675 13.71995364606115
Source of the keplerian elements: AFSPC